Theta_e
288 289 289 290 290 293 295 299 301 312 320 320 319 325 326 326 324 322 322 320 318 319 318 317 316 315 313 312 311 310 308 303 301 300 300 299 299 299
287 288 288 289 290 291 294 298 300 302 313 319 319 321 326 326 325 321 322 319 319 318 317 318 316 314 313 312 311 309 308 302 300 300 299 299 298 298
287 287 288 289 289 290 292 297 300 303 306 318 319 318 323 326 324 322 322 320 319 317 316 318 316 315 313 311 310 309 306 301 300 300 299 299 298 298
287 287 287 288 289 289 291 294 299 304 304 314 318 318 319 324 323 324 322 321 319 317 316 318 317 315 313 311 310 308 304 301 300 300 299 299 298 298
286 286 287 287 288 289 290 292 293 301 305 308 315 317 318 321 323 324 321 321 318 317 316 316 318 316 314 311 309 308 304 300 299 299 299 299 298 297
285 286 286 287 287 288 289 290 292 294 305 305 312 317 319 320 323 321 321 321 318 317 316 315 317 317 314 313 311 308 305 301 299 299 299 299 298 298
285 285 286 286 286 287 288 290 291 292 298 304 311 314 315 319 319 321 320 320 318 317 316 315 316 318 316 313 312 311 308 301 299 299 299 299 298 297
285 285 285 286 286 286 287 288 290 291 295 300 306 312 314 315 319 318 320 318 317 317 316 315 315 316 316 315 313 311 311 307 300 300 299 299 298 297
284 284 285 286 286 286 287 288 289 290 291 294 299 309 313 311 316 318 318 318 317 316 315 315 315 315 316 315 313 312 310 309 307 300 299 299 298 298
284 284 285 285 286 286 287 287 288 289 290 292 296 300 309 310 311 314 318 318 317 317 316 314 315 314 313 313 313 312 311 310 308 306 300 299 300 301
284 284 284 285 285 286 286 287 287 288 289 290 292 298 301 310 309 309 314 315 316 315 316 314 314 314 313 313 312 312 311 310 309 307 306 305 303 303
283 284 284 285 284 285 285 286 287 288 289 289 290 291 294 304 312 308 312 314 315 314 315 314 313 313 311 313 313 312 311 311 310 308 307 306 305 304
282 283 284 284 286 285 286 286 287 288 288 289 290 291 292 297 303 309 308 310 314 315 316 315 313 313 313 311 312 312 311 311 310 309 308 307 306 306
282 282 283 284 285 286 287 286 286 286 287 287 288 290 290 292 293 302 307 309 311 313 314 315 315 315 312 312 311 312 311 311 311 309 309 308 307 306
283 283 283 283 284 285 286 287 287 287 287 287 287 288 289 290 292 294 303 307 309 311 313 313 314 314 314 315 315 314 312 310 311 310 309 308 308 307
283 284 284 284 284 285 285 286 287 287 287 287 287 287 288 289 290 291 294 305 308 309 310 312 312 314 313 313 316 316 313 309 310 310 310 309 308 308
282 282 284 285 285 286 285 286 286 287 287 287 287 287 287 288 289 290 291 293 300 308 310 310 311 312 313 315 313 314 313 312 312 310 309 308 309 309
283 283 283 284 285 285 286 286 286 286 287 287 287 287 287 288 288 289 290 291 294 302 305 308 310 310 311 310 311 313 312 313 312 311 311 308 307 308
285 284 285 284 286 285 287 287 286 286 286 286 286 286 286 287 288 288 289 290 293 297 302 305 308 310 309 308 308 309 311 311 312 309 310 309 308 308
285 285 284 285 285 285 286 286 287 287 286 286 286 286 286 285 287 287 289 291 292 295 299 302 307 309 310 308 306 309 312 312 312 311 310 308 307 305
284 284 285 285 285 286 286 286 286 287 287 286 286 285 286 286 286 287 288 290 292 294 300 302 304 307 310 309 307 310 312 311 312 312 312 309 306 304
284 284 285 285 285 285 286 286 286 287 286 286 286 285 285 285 286 286 287 288 291 293 295 303 304 306 308 309 309 310 311 310 309 310 308 310 310 308
284 284 284 285 285 286 286 285 286 286 286 286 286 285 285 285 286 286 286 288 288 292 296 298 303 306 307 308 308 309 310 310 309 306 303 303 305 307
Wind_Speed
23 22 21 23 22 20 17 9 6 3 29 29 35 38 65 62 55 51 50 43 39 39 37 36 36 35 32 30 28 26 24 21 15 13 11 9 7 6
24 25 25 23 24 22 22 18 8 10 9 27 27 12 62 63 56 55 52 44 42 39 40 41 37 35 33 32 30 28 25 20 17 14 12 9 6 5
24 25 26 25 24 24 23 22 19 14 11 11 26 20 35 64 58 57 54 50 45 37 43 43 40 36 35 34 32 30 27 21 19 16 13 10 7 5
26 26 26 25 25 25 24 25 22 21 16 18 12 23 11 57 57 60 56 51 47 42 43 44 41 38 37 35 33 32 28 23 20 17 15 12 9 6
26 26 25 25 26 26 25 25 25 23 23 18 12 20 13 41 57 61 57 53 50 45 43 43 43 41 37 37 34 33 28 25 23 19 17 14 11 8
24 26 26 27 27 24 25 25 28 26 27 22 23 18 27 31 55 60 58 57 55 50 42 43 44 43 39 35 34 35 30 28 25 22 19 16 13 10
24 25 26 27 27 24 25 26 27 29 31 29 25 25 19 28 50 59 59 58 57 54 48 48 46 47 42 39 33 30 29 30 28 25 21 18 15 12
22 23 25 25 25 24 23 22 27 31 33 31 32 32 26 19 41 46 57 55 48 56 54 51 49 49 48 42 40 35 25 22 29 26 23 21 18 15
26 23 24 24 25 25 26 24 25 29 31 35 35 36 34 16 22 43 49 58 52 51 58 53 53 49 49 45 43 38 32 28 24 27 25 22 19 17
28 28 26 24 24 26 28 30 30 32 32 35 38 39 41 33 18 27 42 54 52 55 60 46 56 52 51 49 46 41 37 34 29 24 26 23 21 18
27 29 30 29 27 26 28 30 30 33 32 33 37 42 41 46 32 24 37 48 49 50 58 46 55 51 55 52 49 45 41 39 35 31 26 22 20 21
28 29 29 30 30 28 29 30 31 32 31 32 34 36 40 47 47 34 30 39 47 37 58 52 47 52 39 52 53 48 45 44 40 36 34 28 24 25
28 28 31 29 32 28 28 31 34 31 31 31 33 35 36 45 46 45 32 32 37 42 51 62 52 55 46 43 54 51 50 50 47 41 39 35 34 32
30 30 30 29 29 32 31 31 28 27 31 32 32 35 36 40 42 50 44 36 35 38 32 59 57 65 57 45 43 55 55 54 50 49 46 42 40 38
30 32 28 27 28 29 32 32 29 31 30 32 35 37 38 36 36 39 51 44 40 36 34 53 58 58 64 60 57 50 57 60 57 55 51 50 49 45
28 29 29 29 31 31 31 33 36 36 35 34 33 32 33 34 35 35 42 52 46 44 38 38 57 58 59 61 61 56 53 55 62 60 59 54 53 49
20 29 29 32 34 35 34 34 36 38 38 38 34 29 30 32 34 35 34 38 48 51 48 38 40 57 56 56 59 59 56 53 52 61 61 61 60 55
24 24 30 31 34 37 37 36 36 38 41 40 39 35 32 29 32 34 36 37 41 50 43 45 43 54 52 50 54 55 58 55 53 51 55 63 63 61
33 33 34 33 33 40 35 37 39 41 40 42 41 41 38 33 30 32 37 39 42 45 52 38 44 59 53 47 52 53 51 54 52 51 50 52 60 60
33 38 38 35 36 39 39 41 41 41 42 43 44 44 42 38 35 38 38 36 41 43 46 48 47 55 62 57 47 55 50 51 52 50 51 50 49 46
31 36 39 42 40 41 44 45 43 43 44 43 43 43 42 42 42 39 40 36 40 40 44 49 53 49 53 50 47 53 56 55 52 47 47 49 51 46
34 37 39 42 42 46 46 48 49 47 44 45 47 46 43 42 44 43 39 43 39 42 50 44 49 51 54 58 57 55 58 53 52 48 46 47 48 49
30 32 40 45 45 45 46 47 48 50 50 49 48 47 45 44 45 45 43 40 40 38 41 46 44 57 58 60 56 56 59 55 51 49 46 41 37 41
Wind_Direction
254 254 255 252 255 248 245 245 240 209 211 227 242 203 204 203 201 198 197 198 200 198 200 194 193 193 192 192 188 182 182 185 173 164 162 154 141 117
256 252 252 251 256 251 244 234 206 235 225 214 231 225 195 202 201 198 198 196 202 200 202 195 199 197 196 197 191 188 187 188 178 175 174 169 161 140
252 250 252 251 252 252 243 235 229 215 236 179 224 249 191 202 199 198 197 195 196 198 201 198 197 202 200 199 196 193 196 189 186 184 184 180 180 164
254 249 248 248 247 249 242 237 231 222 224 208 185 224 234 195 198 195 196 196 195 193 203 202 201 201 206 203 201 202 201 193 194 192 193 190 192 184
252 249 246 245 245 243 244 236 234 228 225 222 201 209 227 195 195 195 195 196 195 200 199 209 204 204 206 207 207 208 205 198 200 198 199 200 201 199
249 249 243 240 241 237 238 237 233 228 222 224 213 190 202 207 199 187 193 197 194 193 200 208 208 207 208 218 219 212 211 203 203 204 204 207 209 211
252 244 243 241 241 235 236 235 234 231 224 221 212 215 198 199 191 189 193 193 197 194 195 203 208 209 210 212 225 232 227 210 208 208 208 212 216 221
265 254 247 243 240 235 234 235 233 232 228 225 222 223 214 189 194 188 187 186 183 199 195 200 206 210 209 212 220 225 229 222 220 215 212 216 221 225
266 263 256 246 239 234 229 229 233 231 229 226 225 217 215 204 189 192 187 191 190 194 197 198 203 210 215 218 220 222 222 225 223 221 219 221 225 230
259 260 258 255 243 236 233 230 226 225 227 226 224 223 222 219 198 187 202 202 197 200 198 190 203 209 217 222 223 222 224 224 225 224 221 223 228 232
254 254 256 253 247 241 236 232 232 231 229 229 231 228 226 224 215 195 190 198 192 194 200 196 202 203 214 218 222 223 224 225 225 226 230 229 236 242
253 248 243 249 251 238 231 232 234 235 234 232 230 231 231 228 221 222 190 191 192 187 199 196 198 197 196 216 219 220 224 224 225 230 231 231 234 231
259 252 250 239 237 235 228 232 233 234 236 238 236 237 232 235 230 224 218 195 192 198 203 203 202 204 205 208 217 217 221 224 221 223 229 230 233 238
257 255 252 246 235 230 228 230 233 232 234 233 234 234 234 229 234 231 228 215 197 195 201 213 206 215 206 207 208 218 218 223 224 225 226 227 227 234
255 256 249 242 236 234 230 227 225 225 230 233 234 236 237 235 231 230 230 227 218 198 194 200 216 214 219 217 220 219 219 221 220 224 225 230 229 230
249 246 244 239 233 230 229 222 225 228 230 236 240 241 242 239 232 229 225 229 226 219 206 201 207 218 218 221 226 226 222 214 222 220 225 229 231 233
263 246 242 236 232 226 224 223 220 223 227 232 236 240 241 241 236 229 229 227 229 223 218 215 213 217 225 230 224 228 226 224 227 223 222 226 229 232
255 251 241 242 232 230 227 227 226 224 226 229 232 232 234 235 239 235 230 227 230 223 218 222 215 208 215 215 228 227 226 228 230 226 228 227 230 229
244 246 249 237 237 233 229 235 233 233 231 230 232 237 240 235 232 235 236 228 223 230 221 227 223 207 204 207 214 222 228 226 230 227 229 230 234 236
243 243 241 246 242 237 235 230 233 235 236 234 235 236 238 239 232 231 231 228 229 221 228 223 225 219 210 208 205 217 228 231 230 232 231 231 235 239
245 240 240 241 241 242 240 234 228 229 230 231 229 228 229 234 237 231 230 229 227 229 217 224 226 232 228 216 212 220 227 232 238 235 233 230 226 229
250 247 243 240 237 239 239 236 234 229 227 230 231 228 227 229 232 234 229 227 223 223 223 219 223 224 220 220 218 222 228 227 231 235 238 242 230 224
266 258 247 242 237 231 231 230 229 231 228 226 227 227 226 223 228 237 234 226 227 228 220 220 221 218 222 222 218 221 227 224 223 221 225 233 237 240